Location: ???????
(55.3754°N, 39.3545°E)
Time: 17:24:30
(UTC+00:00)

Geosat - Pass Details

Date: 14 April 2026
Orbit: 758 x 760 km, 108.0° (Epoch: 16 May)

Event Time Altitude Azimuth Distance (km) Brightness Sun altitude
Rises 17:47:31 0° 34° (NE) 3,233 7.3 -11.1°
Reaches altitude 10° 17:49:50 10° 38° (NE) 2,303 6.5 -11.4°
Maximum altitude 17:54:49 62° 119° (ESE) 854 4.0 -12.0°
Drops below altitude 10° 17:59:46 10° 201° (SSW) 2,289 6.3 -12.5°
Sets 18:02:03 0° 205° (SSW) 3,210 7.1 -12.8°
